Wetterdaten: Donnerstag, 04.01.2007
Datum Zeit Temp. a Sch. Temp. a Son. Temp. a Bod. Feuchte a. Luftdruck Regen Wind Richtung Richtung Sonnenschein Helligkeit Taupunkt Windchill
04.01.2007 00:02 6,2 C 6,1 C 4,6 C 73 % 1018 hPa 0,0 l/m 4,6 m/s (3 Bft) SW45 230 0 min 0 lux 1,7 C -0,2 C
04.01.2007 00:06 6,2 C 6,1 C 4,6 C 73 % 1018 hPa 0,0 l/m 5,5 m/s (3 Bft) SW45 230 0 min 0 lux 1,7 C -1,5 C
04.01.2007 00:11 6,2 C 6,1 C 4,6 C 73 % 1018 hPa 0,0 l/m 2,9 m/s (2 Bft) W-SW45 240 0 min 0 lux 1,7 C 3,0 C
04.01.2007 00:16 6,0 C 6,1 C 4,6 C 73 % 1018 hPa 0,0 l/m 4,3 m/s (3 Bft) SW67.5 235 0 min 0 lux 1,5 C -0,0 C
04.01.2007 00:22 6,0 C 6,2 C 4,6 C 73 % 1018 hPa 0,0 l/m 5,0 m/s (3 Bft) W-SW22.5 240 0 min 0 lux 1,5 C -1,0 C
04.01.2007 00:27 6,0 C 6,2 C 4,6 C 73 % 1018 hPa 0,0 l/m 3,7 m/s (3 Bft) SW45 225 0 min 0 lux 1,5 C 1,2 C
04.01.2007 00:32 6,2 C 6,2 C 4,7 C 73 % 1018 hPa 0,0 l/m 4,7 m/s (3 Bft) SW45 235 0 min 0 lux 1,7 C -0,3 C
04.01.2007 00:37 6,2 C 6,2 C 4,6 C 72 % 1017 hPa 0,0 l/m 4,8 m/s (3 Bft) SW67.5 220 0 min 0 lux 1,5 C -0,5 C
04.01.2007 00:42 6,2 C 6,2 C 4,6 C 72 % 1017 hPa 0,0 l/m 4,1 m/s (3 Bft) SW67.5 235 0 min 0 lux 1,5 C 0,7 C
04.01.2007 00:47 6,2 C 6,2 C 4,7 C 72 % 1018 hPa 0,0 l/m 5,6 m/s (4 Bft) SW67.5 235 0 min 0 lux 1,5 C -1,7 C
04.01.2007 00:52 6,2 C 6,2 C 4,7 C 72 % 1018 hPa 0,0 l/m 5,9 m/s (4 Bft) W-SW45 240 0 min 0 lux 1,5 C -2,1 C
04.01.2007 00:57 6,3 C 6,2 C 4,8 C 72 % 1017 hPa 0,0 l/m 4,4 m/s (3 Bft) W-SW45 240 0 min 0 lux 1,6 C 0,3 C
04.01.2007 01:02 6,2 C 6,3 C 4,8 C 71 % 1017 hPa 0,0 l/m 5,6 m/s (4 Bft) W-SW45 250 0 min 0 lux 1,3 C -1,7 C
04.01.2007 01:07 6,2 C 6,3 C 4,8 C 72 % 1017 hPa 0,0 l/m 3,7 m/s (3 Bft) S-SW67.5 210 0 min 0 lux 1,5 C 1,4 C
04.01.2007 01:12 6,2 C 6,3 C 4,6 C 72 % 1017 hPa 0,0 l/m 4,6 m/s (3 Bft) W-SW45 245 0 min 0 lux 1,5 C -0,1 C
04.01.2007 01:17 6,2 C 6,2 C 4,7 C 72 % 1017 hPa 0,0 l/m 2,3 m/s (2 Bft) SW45 230 0 min 0 lux 1,5 C 4,8 C
04.01.2007 01:22 6,2 C 6,3 C 4,9 C 72 % 1017 hPa 0,0 l/m 3,8 m/s (3 Bft) W-SW67.5 245 0 min 0 lux 1,5 C 1,3 C
04.01.2007 01:27 6,2 C 6,3 C 4,8 C 71 % 1016 hPa 0,0 l/m 4,4 m/s (3 Bft) SW67.5 220 0 min 0 lux 1,3 C 0,1 C
04.01.2007 01:32 6,2 C 6,3 C 4,8 C 72 % 1016 hPa 0,0 l/m 4,1 m/s (3 Bft) S-SW67.5 195 0 min 0 lux 1,5 C 0,7 C
04.01.2007 01:37 6,2 C 6,3 C 4,7 C 71 % 1016 hPa 0,0 l/m 1,9 m/s (2 Bft) SW67.5 225 0 min 0 lux 1,3 C 5,7 C
04.01.2007 01:42 6,2 C 6,3 C 4,8 C 72 % 1016 hPa 0,0 l/m 3,1 m/s (2 Bft) S-SW45 205 0 min 0 lux 1,5 C 2,6 C
04.01.2007 01:47 6,4 C 6,3 C 4,8 C 71 % 1016 hPa 0,0 l/m 2,7 m/s (2 Bft) SW67.5 215 0 min 0 lux 1,5 C 3,9 C
04.01.2007 01:52 6,4 C 6,4 C 4,9 C 71 % 1016 hPa 0,0 l/m 5,7 m/s (4 Bft) SW67.5 235 0 min 0 lux 1,5 C -1,5 C
04.01.2007 01:57 6,4 C 6,4 C 4,9 C 71 % 1016 hPa 0,0 l/m 5,5 m/s (3 Bft) W-SW45 245 0 min 0 lux 1,5 C -1,3 C
04.01.2007 02:02 6,4 C 6,4 C 4,9 C 70 % 1016 hPa 0,0 l/m 4,8 m/s (3 Bft) SW67.5 230 0 min 0 lux 1,3 C -0,3 C
04.01.2007 02:07 6,4 C 6,4 C 4,9 C 70 % 1016 hPa 0,0 l/m 5,2 m/s (3 Bft) W-SW45 245 0 min 0 lux 1,3 C -0,9 C
04.01.2007 02:12 6,5 C 6,4 C 5,0 C 70 % 1016 hPa 0,0 l/m 5,2 m/s (3 Bft) W-SW22.5 245 0 min 0 lux 1,4 C -0,8 C
04.01.2007 02:17 6,4 C 6,4 C 4,9 C 70 % 1016 hPa 0,0 l/m 5,5 m/s (3 Bft) W45 265 0 min 0 lux 1,3 C -1,2 C
04.01.2007 02:22 6,4 C 6,5 C 5,0 C 70 % 1016 hPa 0,0 l/m 3,1 m/s (2 Bft) SW45 230 0 min 0 lux 1,3 C 2,9 C
04.01.2007 02:27 6,4 C 6,5 C 5,0 C 70 % 1016 hPa 0,0 l/m 5,7 m/s (4 Bft) SW45 235 0 min 0 lux 1,3 C -1,5 C
04.01.2007 02:32 6,4 C 6,5 C 4,8 C 70 % 1016 hPa 0,0 l/m 5,8 m/s (4 Bft) W-SW45 250 0 min 0 lux 1,3 C -1,6 C
04.01.2007 02:37 6,4 C 6,5 C 4,8 C 71 % 1015 hPa 0,0 l/m 5,8 m/s (4 Bft) W-SW67.5 240 0 min 0 lux 1,5 C -1,6 C
04.01.2007 02:42 6,3 C 6,4 C 4,7 C 72 % 1015 hPa 0,0 l/m 4,2 m/s (3 Bft) SW67.5 235 0 min 0 lux 1,6 C 0,6 C
04.01.2007 02:47 6,3 C 6,3 C 4,6 C 73 % 1015 hPa 0,0 l/m 6,6 m/s (4 Bft) W-SW22.5 240 0 min 0 lux 1,8 C -2,8 C
04.01.2007 02:52 6,2 C 6,3 C 4,6 C 74 % 1015 hPa 0,0 l/m 5,8 m/s (4 Bft) W-SW45 250 0 min 0 lux 1,9 C -1,9 C
04.01.2007 02:57 6,2 C 6,3 C 4,6 C 75 % 1015 hPa 0,0 l/m 7,1 m/s (4 Bft) W-SW67.5 240 0 min 0 lux 2,1 C -3,5 C
04.01.2007 03:02 6,2 C 6,3 C 4,5 C 75 % 1015 hPa 0,0 l/m 7,1 m/s (4 Bft) W-SW67.5 240 0 min 0 lux 2,1 C -3,5 C
04.01.2007 03:07 6,0 C 6,2 C 4,5 C 76 % 1015 hPa 0,0 l/m 7,1 m/s (4 Bft) W-SW67.5 240 0 min 0 lux 2,1 C -3,8 C
04.01.2007 03:12 6,0 C 6,2 C 4,5 C 77 % 1015 hPa 0,0 l/m 6,6 m/s (4 Bft) SW67.5 235 0 min 0 lux 2,3 C -3,1 C
04.01.2007 03:17 6,0 C 6,2 C 4,5 C 77 % 1015 hPa 0,0 l/m 6,2 m/s (4 Bft) W-SW22.5 245 0 min 0 lux 2,3 C -2,7 C
04.01.2007 03:22 6,0 C 6,2 C 4,5 C 77 % 1015 hPa 0,0 l/m 6,2 m/s (4 Bft) W-SW67.5 240 0 min 0 lux 2,3 C -2,7 C
04.01.2007 03:27 6,0 C 6,1 C 4,5 C 77 % 1015 hPa 0,0 l/m 4,6 m/s (3 Bft) W-SW45 250 0 min 0 lux 2,3 C -0,4 C
04.01.2007 03:32 6,0 C 6,1 C 4,6 C 77 % 1015 hPa 0,0 l/m 5,3 m/s (3 Bft) W-SW67.5 245 0 min 0 lux 2,3 C -1,5 C
04.01.2007 03:37 6,0 C 6,1 C 4,6 C 77 % 1014 hPa 0,0 l/m 5,0 m/s (3 Bft) W-SW45 240 0 min 0 lux 2,3 C -1,1 C
04.01.2007 03:42 6,0 C 6,1 C 4,6 C 77 % 1014 hPa 0,0 l/m 5,4 m/s (3 Bft) W-SW45 240 0 min 0 lux 2,3 C -1,6 C
04.01.2007 03:47 6,0 C 6,1 C 4,6 C 77 % 1014 hPa 0,0 l/m 5,1 m/s (3 Bft) W-SW45 250 0 min 0 lux 2,3 C -1,2 C
04.01.2007 03:52 6,0 C 6,1 C 4,6 C 77 % 1014 hPa 0,0 l/m 5,4 m/s (3 Bft) W-SW67.5 255 0 min 0 lux 2,3 C -1,7 C
04.01.2007 03:57 6,0 C 6,1 C 4,6 C 77 % 1014 hPa 0,0 l/m 7,0 m/s (4 Bft) W-SW67.5 240 0 min 0 lux 2,3 C -3,7 C
04.01.2007 04:02 6,0 C 6,1 C 4,6 C 77 % 1014 hPa 0,0 l/m 7,3 m/s (4 Bft) W-SW45 250 0 min 0 lux 2,3 C -4,0 C
04.01.2007 04:07 6,3 C 6,1 C 4,6 C 77 % 1014 hPa 0,0 l/m 6,0 m/s (4 Bft) W-SW45 250 0 min 0 lux 2,6 C -2,1 C
04.01.2007 04:12 6,0 C 6,1 C 4,6 C 77 % 1013 hPa 0,0 l/m 6,3 m/s (4 Bft) W-SW45 240 0 min 0 lux 2,3 C -2,9 C
04.01.2007 04:17 6,1 C 6,1 C 4,6 C 77 % 1013 hPa 0,0 l/m 8,9 m/s (5 Bft) SW45 235 0 min 0 lux 2,4 C -5,3 C
04.01.2007 04:22 6,2 C 6,1 C 4,7 C 76 % 1013 hPa 0,0 l/m 6,7 m/s (4 Bft) W-SW67.5 245 0 min 0 lux 2,3 C -3,0 C
04.01.2007 04:27 6,2 C 6,1 C 4,8 C 75 % 1013 hPa 0,0 l/m 8,7 m/s (5 Bft) W-SW67.5 240 0 min 0 lux 2,1 C -5,0 C
04.01.2007 04:32 6,2 C 6,1 C 4,9 C 76 % 1013 hPa 0,0 l/m 6,4 m/s (4 Bft) W-SW45 240 0 min 0 lux 2,3 C -2,7 C
04.01.2007 04:37 6,2 C 6,2 C 4,8 C 75 % 1013 hPa 0,0 l/m 7,7 m/s (4 Bft) W-SW45 250 0 min 0 lux 2,1 C -4,1 C
04.01.2007 04:41 6,2 C 6,1 C 4,8 C 75 % 1013 hPa 0,0 l/m 5,6 m/s (4 Bft) W-SW45 245 0 min 0 lux 2,1 C -1,7 C
04.01.2007 04:46 6,1 C 6,1 C 4,8 C 76 % 1013 hPa 0,0 l/m 4,9 m/s (3 Bft) SW45 235 0 min 0 lux 2,2 C -0,7 C
04.01.2007 04:52 6,2 C 6,1 C 4,8 C 76 % 1013 hPa 0,0 l/m 4,6 m/s (3 Bft) SW45 230 0 min 0 lux 2,3 C -0,2 C
04.01.2007 04:57 6,2 C 6,2 C 4,9 C 75 % 1012 hPa 0,0 l/m 8,1 m/s (5 Bft) W-SW45 240 0 min 0 lux 2,1 C -4,5 C
04.01.2007 05:02 6,2 C 6,2 C 4,8 C 75 % 1012 hPa 0,0 l/m 6,8 m/s (4 Bft) W-SW45 245 0 min 0 lux 2,1 C -3,2 C
04.01.2007 05:07 6,2 C 6,2 C 4,9 C 74 % 1012 hPa 0,0 l/m 6,9 m/s (4 Bft) W-SW67.5 245 0 min 0 lux 1,9 C -3,3 C
04.01.2007 05:12 6,3 C 6,3 C 5,0 C 74 % 1012 hPa 0,0 l/m 7,1 m/s (4 Bft) SW67.5 235 0 min 0 lux 2,0 C -3,3 C
04.01.2007 05:17 6,3 C 6,3 C 5,0 C 74 % 1012 hPa 0,0 l/m 7,2 m/s (4 Bft) SW67.5 230 0 min 0 lux 2,0 C -3,4 C
04.01.2007 05:22 6,3 C 6,2 C 5,0 C 74 % 1012 hPa 0,0 l/m 6,0 m/s (4 Bft) SW45 230 0 min 0 lux 2,0 C -2,0 C
04.01.2007 05:27 6,2 C 6,3 C 4,9 C 75 % 1012 hPa 0,0 l/m 8,9 m/s (5 Bft) SW45 235 0 min 0 lux 2,1 C -5,2 C
04.01.2007 05:32 6,3 C 6,3 C 5,0 C 75 % 1012 hPa 0,0 l/m 6,4 m/s (4 Bft) W-SW67.5 245 0 min 0 lux 2,2 C -2,6 C
04.01.2007 05:37 6,2 C 6,2 C 4,8 C 77 % 1012 hPa 0,0 l/m 7,7 m/s (4 Bft) W-SW45 245 0 min 0 lux 2,5 C -4,1 C
04.01.2007 05:42 6,1 C 6,0 C 4,6 C 78 % 1012 hPa 0,0 l/m 6,5 m/s (4 Bft) SW67.5 230 0 min 0 lux 2,6 C -3,0 C
04.01.2007 05:47 6,0 C 6,0 C 4,6 C 81 % 1011 hPa 0,0 l/m 5,1 m/s (3 Bft) SW45 230 0 min 0 lux 3,0 C -1,3 C
04.01.2007 05:52 6,0 C 5,8 C 4,5 C 82 % 1011 hPa 0,0 l/m 6,4 m/s (4 Bft) SW45 230 0 min 0 lux 3,2 C -2,9 C
04.01.2007 05:57 5,9 C 5,8 C 4,4 C 84 % 1011 hPa 0,4 l/m 4,9 m/s (3 Bft) SW67.5 235 0 min 0 lux 3,4 C -1,1 C
04.01.2007 06:02 5,9 C 5,7 C 4,4 C 85 % 1011 hPa 0,0 l/m 5,3 m/s (3 Bft) W-SW67.5 240 0 min 0 lux 3,6 C -1,7 C
04.01.2007 06:07 6,0 C 5,6 C 4,4 C 85 % 1011 hPa 0,0 l/m 7,3 m/s (4 Bft) W-SW67.5 240 0 min 0 lux 3,7 C -3,9 C
04.01.2007 06:12 5,9 C 5,6 C 4,4 C 86 % 1011 hPa 0,0 l/m 6,1 m/s (4 Bft) W-SW45 240 0 min 0 lux 3,7 C -2,7 C
04.01.2007 06:17 5,9 C 5,6 C 4,4 C 86 % 1011 hPa 0,0 l/m 4,9 m/s (3 Bft) W-SW45 240 0 min 0 lux 3,7 C -1,0 C
04.01.2007 06:22 6,0 C 5,5 C 4,4 C 85 % 1011 hPa 0,0 l/m 7,2 m/s (4 Bft) W-SW45 245 0 min 0 lux 3,7 C -3,9 C
04.01.2007 06:27 6,0 C 5,6 C 4,4 C 85 % 1011 hPa 0,0 l/m 7,6 m/s (4 Bft) SW67.5 235 0 min 0 lux 3,7 C -4,3 C
04.01.2007 06:32 6,0 C 5,5 C 4,4 C 85 % 1011 hPa 0,0 l/m 6,5 m/s (4 Bft) W-SW45 245 0 min 0 lux 3,7 C -3,1 C
04.01.2007 06:37 6,0 C 5,5 C 4,4 C 85 % 1011 hPa 0,0 l/m 4,9 m/s (3 Bft) SW67.5 235 0 min 0 lux 3,7 C -0,9 C
04.01.2007 06:42 6,0 C 5,5 C 4,4 C 85 % 1011 hPa 0,0 l/m 4,9 m/s (3 Bft) SW67.5 235 0 min 0 lux 3,7 C -0,9 C
04.01.2007 06:47 6,0 C 5,5 C 4,4 C 85 % 1011 hPa 0,4 l/m 7,3 m/s (4 Bft) SW45 225 0 min 0 lux 3,7 C -3,9 C
04.01.2007 06:52 6,0 C 5,5 C 4,4 C 85 % 1011 hPa 0,0 l/m 6,0 m/s (4 Bft) SW45 235 0 min 0 lux 3,7 C -2,4 C
04.01.2007 06:57 6,0 C 5,5 C 4,4 C 85 % 1011 hPa 0,0 l/m 5,8 m/s (4 Bft) SW22.5 235 0 min 0 lux 3,7 C -2,3 C
04.01.2007 07:02 6,0 C 5,5 C 4,4 C 85 % 1011 hPa 0,0 l/m 5,7 m/s (4 Bft) W-SW45 240 0 min 0 lux 3,7 C -2,1 C
04.01.2007 07:07 6,1 C 5,6 C 4,4 C 85 % 1010 hPa 0,0 l/m 5,7 m/s (4 Bft) W-SW45 250 0 min 0 lux 3,8 C -1,9 C
04.01.2007 07:12 6,1 C 5,6 C 4,4 C 84 % 1011 hPa 0,0 l/m 5,2 m/s (3 Bft) W-SW67.5 240 0 min 0 lux 3,6 C -1,3 C
04.01.2007 07:17 6,1 C 5,7 C 4,4 C 84 % 1010 hPa 0,0 l/m 4,1 m/s (3 Bft) W-SW67.5 245 0 min 0 lux 3,6 C 0,5 C
04.01.2007 07:22 6,1 C 5,7 C 4,4 C 84 % 1010 hPa 0,0 l/m 5,7 m/s (4 Bft) W-SW45 240 0 min 0 lux 3,6 C -1,9 C
04.01.2007 07:27 6,3 C 5,7 C 4,4 C 84 % 1010 hPa 0,0 l/m 6,6 m/s (4 Bft) SW45 235 0 min 0 lux 3,8 C -2,8 C
04.01.2007 07:32 6,3 C 5,8 C 4,5 C 83 % 1010 hPa 0,0 l/m 5,1 m/s (3 Bft) W-SW45 245 0 min 0 lux 3,6 C -0,9 C
04.01.2007 07:37 6,3 C 5,8 C 4,5 C 83 % 1010 hPa 0,0 l/m 6,9 m/s (4 Bft) SW22.5 235 0 min 0 lux 3,6 C -3,1 C
04.01.2007 07:42 6,3 C 5,8 C 4,5 C 84 % 1010 hPa 0,0 l/m 5,3 m/s (3 Bft) W-SW22.5 240 0 min 0 lux 3,8 C -1,1 C
04.01.2007 07:47 6,3 C 5,8 C 4,5 C 83 % 1010 hPa 0,0 l/m 5,3 m/s (3 Bft) SW67.5 235 0 min 0 lux 3,6 C -1,1 C
04.01.2007 07:52 6,3 C 5,8 C 4,5 C 84 % 1010 hPa 0,0 l/m 7,2 m/s (4 Bft) W-SW45 240 0 min 0 lux 3,8 C -3,4 C
04.01.2007 07:57 6,3 C 5,8 C 4,5 C 83 % 1010 hPa 0,0 l/m 7,1 m/s (4 Bft) SW45 235 0 min 0 lux 3,6 C -3,4 C
04.01.2007 08:02 6,3 C 5,8 C 4,6 C 83 % 1010 hPa 0,0 l/m 7,1 m/s (4 Bft) W-SW67.5 245 0 min 0 lux 3,6 C -3,4 C
04.01.2007 08:07 6,3 C 5,9 C 4,5 C 82 % 1010 hPa 0,0 l/m 5,9 m/s (4 Bft) W-SW45 240 0 min 0 lux 3,5 C -2,0 C
04.01.2007 08:12 6,3 C 6,0 C 4,5 C 82 % 1010 hPa 0,0 l/m 7,8 m/s (4 Bft) SW45 235 0 min 0 lux 3,5 C -4,1 C
04.01.2007 08:17 6,3 C 6,0 C 4,6 C 80 % 1010 hPa 0,0 l/m 8,1 m/s (5 Bft) SW45 230 0 min 0 lux 3,1 C -4,4 C
04.01.2007 08:22 6,3 C 6,1 C 4,6 C 80 % 1010 hPa 0,0 l/m 6,8 m/s (4 Bft) W-SW45 240 0 min 56 lux 3,1 C -3,0 C
04.01.2007 08:27 6,3 C 6,1 C 4,6 C 79 % 1010 hPa 0,0 l/m 6,7 m/s (4 Bft) W-SW67.5 245 0 min 71 lux 2,9 C -2,9 C
04.01.2007 08:32 6,3 C 6,1 C 4,6 C 79 % 1010 hPa 0,0 l/m 6,1 m/s (4 Bft) W-SW45 240 0 min 85 lux 2,9 C -2,1 C
04.01.2007 08:37 6,3 C 6,1 C 4,6 C 79 % 1010 hPa 0,0 l/m 6,1 m/s (4 Bft) W-SW45 240 0 min 137 lux 2,9 C -2,1 C
04.01.2007 08:42 6,3 C 6,1 C 4,6 C 79 % 1010 hPa 0,0 l/m 8,1 m/s (5 Bft) W-SW67.5 240 0 min 236 lux 2,9 C -4,3 C
04.01.2007 08:47 6,3 C 6,2 C 4,6 C 79 % 1009 hPa 0,0 l/m 9,1 m/s (5 Bft) W-SW45 240 0 min 199 lux 2,9 C -5,2 C
04.01.2007 08:52 6,3 C 6,2 C 4,6 C 78 % 1009 hPa 0,0 l/m 7,7 m/s (4 Bft) SW45 235 0 min 532 lux 2,8 C -4,0 C
04.01.2007 08:57 6,3 C 6,1 C 4,6 C 78 % 1010 hPa 0,0 l/m 6,6 m/s (4 Bft) W-SW67.5 240 0 min 873 lux 2,8 C -2,8 C
04.01.2007 09:02 6,3 C 6,2 C 4,6 C 78 % 1010 hPa 0,0 l/m 6,2 m/s (4 Bft) W-SW22.5 240 0 min 750 lux 2,8 C -2,3 C
04.01.2007 09:07 6,3 C 6,2 C 4,6 C 78 % 1009 hPa 0,0 l/m 7,5 m/s (4 Bft) SW45 230 0 min 1,41 klux 2,8 C -3,8 C
04.01.2007 09:12 6,4 C 6,2 C 4,7 C 77 % 1009 hPa 0,0 l/m 7,4 m/s (4 Bft) W-SW45 245 0 min 1,16 klux 2,7 C -3,5 C
04.01.2007 09:17 6,3 C 6,2 C 4,7 C 77 % 1009 hPa 0,0 l/m 11,3 m/s (6 Bft) W-SW45 240 0 min 1,87 klux 2,6 C -6,7 C
04.01.2007 09:22 6,3 C 6,1 C 4,7 C 78 % 1009 hPa 0,0 l/m 7,0 m/s (4 Bft) SW45 220 0 min 3,11 klux 2,8 C -3,3 C
04.01.2007 09:27 6,4 C 6,1 C 4,8 C 77 % 1009 hPa 0,0 l/m 8,2 m/s (5 Bft) W-SW45 245 0 min 5,07 klux 2,7 C -4,3 C
04.01.2007 09:32 6,5 C 6,2 C 4,8 C 77 % 1009 hPa 0,0 l/m 7,8 m/s (4 Bft) SW45 235 0 min 2,95 klux 2,8 C -3,8 C
04.01.2007 09:37 6,3 C 6,1 C 4,7 C 77 % 1009 hPa 0,0 l/m 9,3 m/s (5 Bft) SW45 225 0 min 1,73 klux 2,6 C -5,3 C
04.01.2007 09:42 6,3 C 6,1 C 4,6 C 78 % 1009 hPa 0,0 l/m 8,6 m/s (5 Bft) SW45 235 0 min 3,63 klux 2,8 C -4,7 C
04.01.2007 09:47 6,3 C 6,0 C 4,7 C 78 % 1009 hPa 0,0 l/m 10,9 m/s (6 Bft) SW67.5 235 0 min 3,86 klux 2,8 C -6,5 C
04.01.2007 09:52 6,4 C 6,0 C 4,8 C 78 % 1009 hPa 0,0 l/m 8,2 m/s (5 Bft) W-SW45 245 0 min 5,39 klux 2,8 C -4,3 C
04.01.2007 09:57 6,4 C 6,1 C 4,8 C 78 % 1009 hPa 0,0 l/m 7,9 m/s (4 Bft) W-SW45 240 0 min 5,88 klux 2,8 C -4,0 C
04.01.2007 10:02 6,4 C 6,1 C 4,8 C 78 % 1009 hPa 0,0 l/m 6,7 m/s (4 Bft) W-SW45 240 0 min 3,45 klux 2,8 C -2,8 C
04.01.2007 10:07 6,4 C 6,2 C 4,9 C 78 % 1009 hPa 0,0 l/m 5,5 m/s (4 Bft) W-SW67.5 240 0 min 2,46 klux 2,8 C -1,3 C
04.01.2007 10:12 6,4 C 6,2 C 5,0 C 78 % 1009 hPa 0,0 l/m 7,6 m/s (4 Bft) W-SW45 250 0 min 5,96 klux 2,8 C -3,7 C
04.01.2007 10:17 6,4 C 6,3 C 5,1 C 78 % 1009 hPa 0,0 l/m 6,6 m/s (4 Bft) W45 260 0 min 6,74 klux 2,8 C -2,6 C
04.01.2007 10:22 6,4 C 6,3 C 5,3 C 78 % 1009 hPa 0,0 l/m 10,5 m/s (5 Bft) W-SW45 240 0 min 10,9 klux 2,8 C -6,0 C
04.01.2007 10:27 6,4 C 6,5 C 5,2 C 78 % 1009 hPa 0,0 l/m 8,3 m/s (5 Bft) W-SW67.5 240 0 min 5,98 klux 2,8 C -4,4 C
04.01.2007 10:32 6,4 C 6,5 C 5,1 C 78 % 1009 hPa 0,0 l/m 7,6 m/s (4 Bft) W-SW67.5 245 0 min 5,22 klux 2,8 C -3,7 C
04.01.2007 10:37 6,4 C 6,6 C 5,1 C 78 % 1009 hPa 0,0 l/m 7,3 m/s (4 Bft) SW45 235 0 min 4,05 klux 2,8 C -3,4 C
04.01.2007 10:42 6,4 C 6,6 C 5,1 C 78 % 1009 hPa 0,0 l/m 9,3 m/s (5 Bft) W-SW67.5 240 0 min 2,32 klux 2,8 C -5,2 C
04.01.2007 10:47 6,5 C 6,5 C 5,0 C 77 % 1009 hPa 0,0 l/m 7,8 m/s (4 Bft) SW67.5 225 0 min 1,34 klux 2,8 C -3,8 C
04.01.2007 10:52 6,5 C 6,4 C 5,0 C 78 % 1009 hPa 0,0 l/m 8,4 m/s (5 Bft) SW45 235 0 min 2,09 klux 2,9 C -4,4 C
04.01.2007 10:57 6,5 C 6,4 C 5,0 C 78 % 1009 hPa 0,0 l/m 6,5 m/s (4 Bft) SW45 230 0 min 1,49 klux 2,9 C -2,4 C
04.01.2007 11:02 6,5 C 6,4 C 5,0 C 79 % 1009 hPa 0,0 l/m 8,1 m/s (5 Bft) SW67.5 225 0 min 2,20 klux 3,1 C -4,1 C
04.01.2007 11:07 6,5 C 6,3 C 5,0 C 80 % 1009 hPa 0,0 l/m 7,4 m/s (4 Bft) SW45 235 0 min 2,23 klux 3,3 C -3,3 C
04.01.2007 11:12 6,5 C 6,3 C 5,1 C 80 % 1008 hPa 0,0 l/m 7,2 m/s (4 Bft) SW67.5 230 0 min 3,76 klux 3,3 C -3,2 C
04.01.2007 11:17 6,6 C 6,3 C 5,1 C 80 % 1008 hPa 0,0 l/m 6,4 m/s (4 Bft) SW45 230 0 min 4,25 klux 3,4 C -2,2 C
04.01.2007 11:22 6,6 C 6,3 C 5,1 C 80 % 1008 hPa 0,0 l/m 6,2 m/s (4 Bft) W-SW67.5 240 0 min 3,20 klux 3,4 C -2,0 C
04.01.2007 11:27 6,7 C 6,4 C 5,2 C 79 % 1008 hPa 0,0 l/m 7,2 m/s (4 Bft) SW45 235 0 min 3,25 klux 3,3 C -2,9 C
04.01.2007 11:32 6,7 C 6,5 C 5,2 C 79 % 1008 hPa 0,0 l/m 7,2 m/s (4 Bft) SW45 235 0 min 2,24 klux 3,3 C -2,9 C
04.01.2007 11:37 6,7 C 6,5 C 5,2 C 79 % 1009 hPa 0,0 l/m 6,4 m/s (4 Bft) W-SW67.5 245 0 min 4,93 klux 3,3 C -2,0 C
04.01.2007 11:42 6,8 C 6,6 C 5,2 C 79 % 1009 hPa 0,0 l/m 6,5 m/s (4 Bft) W-SW45 245 0 min 4,69 klux 3,4 C -2,0 C
04.01.2007 11:47 6,8 C 6,5 C 5,2 C 81 % 1009 hPa 0,0 l/m 6,5 m/s (4 Bft) W-SW67.5 250 0 min 4,24 klux 3,8 C -2,0 C
04.01.2007 11:52 6,8 C 6,5 C 5,2 C 81 % 1009 hPa 0,0 l/m 7,7 m/s (4 Bft) W-SW45 245 0 min 3,02 klux 3,8 C -3,2 C
04.01.2007 11:57 6,8 C 6,5 C 5,2 C 81 % 1008 hPa 0,0 l/m 7,9 m/s (4 Bft) W-SW45 245 0 min 5,55 klux 3,8 C -3,5 C
04.01.2007 12:02 6,8 C 6,5 C 5,3 C 81 % 1008 hPa 0,4 l/m 5,9 m/s (4 Bft) W-SW45 245 0 min 6,07 klux 3,8 C -1,3 C
04.01.2007 12:07 6,9 C 6,5 C 5,3 C 82 % 1008 hPa 0,0 l/m 7,4 m/s (4 Bft) W-SW45 245 0 min 6,84 klux 4,0 C -2,8 C
04.01.2007 12:12 7,0 C 6,5 C 5,4 C 81 % 1008 hPa 0,0 l/m 7,1 m/s (4 Bft) W-SW45 240 0 min 9,4 klux 4,0 C -2,4 C
04.01.2007 12:17 7,1 C 6,6 C 5,5 C 80 % 1008 hPa 0,0 l/m 7,8 m/s (4 Bft) W-SW45 240 0 min 11,1 klux 3,9 C -2,9 C
04.01.2007 12:22 7,1 C 6,7 C 5,6 C 80 % 1008 hPa 0,0 l/m 6,8 m/s (4 Bft) W-SW45 240 0 min 11,2 klux 3,9 C -1,9 C
04.01.2007 12:27 7,3 C 6,8 C 5,6 C 79 % 1008 hPa 0,0 l/m 5,0 m/s (3 Bft) W-SW45 250 0 min 10,9 klux 3,9 C 0,5 C
04.01.2007 12:32 7,3 C 6,9 C 5,6 C 79 % 1008 hPa 0,0 l/m 7,2 m/s (4 Bft) W-SW45 245 0 min 9,9 klux 3,9 C -2,1 C
04.01.2007 12:37 7,3 C 7,0 C 5,6 C 79 % 1008 hPa 0,0 l/m 9,4 m/s (5 Bft) W-SW67.5 245 0 min 6,71 klux 3,9 C -4,0 C
04.01.2007 12:42 7,1 C 6,9 C 5,5 C 79 % 1008 hPa 0,0 l/m 8,3 m/s (5 Bft) W-SW45 245 0 min 3,15 klux 3,7 C -3,4 C
04.01.2007 12:47 7,1 C 6,9 C 5,5 C 81 % 1008 hPa 0,0 l/m 8,5 m/s (5 Bft) W-SW45 245 0 min 3,39 klux 4,1 C -3,6 C
04.01.2007 12:52 7,1 C 6,8 C 5,5 C 80 % 1008 hPa 0,0 l/m 8,6 m/s (5 Bft) W-SW45 240 0 min 6,34 klux 3,9 C -3,7 C
04.01.2007 12:57 7,2 C 6,9 C 5,5 C 79 % 1008 hPa 0,0 l/m 7,1 m/s (4 Bft) W-SW45 240 0 min 5,52 klux 3,8 C -2,1 C
04.01.2007 13:02 7,1 C 6,9 C 5,4 C 78 % 1007 hPa 0,0 l/m 9,8 m/s (5 Bft) W-SW22.5 255 0 min 2,44 klux 3,5 C -4,6 C
04.01.2007 13:07 7,1 C 6,9 C 5,4 C 78 % 1007 hPa 0,0 l/m 6,4 m/s (4 Bft) W-SW45 240 0 min 5,73 klux 3,5 C -1,5 C
04.01.2007 13:12 7,1 C 7,0 C 5,5 C 78 % 1007 hPa 0,0 l/m 7,8 m/s (4 Bft) W-SW45 240 0 min 5,43 klux 3,5 C -3,0 C
04.01.2007 13:17 7,3 C 7,1 C 5,6 C 78 % 1007 hPa 0,0 l/m 7,1 m/s (4 Bft) W-SW45 240 0 min 8,08 klux 3,7 C -2,0 C
04.01.2007 13:22 7,3 C 7,2 C 5,7 C 78 % 1007 hPa 0,0 l/m 7,4 m/s (4 Bft) W-SW45 240 0 min 15,6 klux 3,7 C -2,2 C
04.01.2007 13:27 7,8 C 7,5 C 6,0 C 77 % 1007 hPa 0,0 l/m 6,0 m/s (4 Bft) W-SW45 240 0 min 15,6 klux 4,0 C -0,1 C
04.01.2007 13:32 7,9 C 7,6 C 6,1 C 75 % 1007 hPa 0,0 l/m 6,9 m/s (4 Bft) W-SW67.5 250 5 min 23,0 klux 3,7 C -0,9 C
04.01.2007 13:37 7,9 C 7,7 C 6,1 C 74 % 1007 hPa 0,0 l/m 6,8 m/s (4 Bft) W-SW45 245 0 min 14,1 klux 3,6 C -0,9 C
04.01.2007 13:42 7,8 C 7,7 C 6,0 C 73 % 1007 hPa 0,0 l/m 8,6 m/s (5 Bft) W-SW67.5 240 0 min 9,1 klux 3,3 C -2,7 C
04.01.2007 13:47 7,8 C 7,8 C 6,0 C 74 % 1007 hPa 0,0 l/m 6,5 m/s (4 Bft) W-SW22.5 245 0 min 6,97 klux 3,5 C -0,6 C
04.01.2007 13:52 7,8 C 7,8 C 6,0 C 74 % 1007 hPa 0,0 l/m 7,7 m/s (4 Bft) W-SW45 250 0 min 6,01 klux 3,5 C -1,9 C
04.01.2007 13:57 7,8 C 7,8 C 6,0 C 74 % 1007 hPa 0,0 l/m 8,4 m/s (5 Bft) W-SW45 250 0 min 5,34 klux 3,5 C -2,5 C
04.01.2007 14:02 7,8 C 7,8 C 6,0 C 74 % 1007 hPa 0,0 l/m 6,2 m/s (4 Bft) W-SW67.5 255 0 min 4,22 klux 3,5 C -0,3 C
04.01.2007 14:07 7,8 C 7,8 C 6,0 C 74 % 1007 hPa 0,0 l/m 6,7 m/s (4 Bft) W-SW22.5 250 0 min 3,33 klux 3,5 C -0,9 C
04.01.2007 14:12 7,8 C 7,8 C 5,7 C 74 % 1007 hPa 0,4 l/m 7,9 m/s (4 Bft) W-SW45 255 0 min 1,86 klux 3,5 C -2,1 C
04.01.2007 14:17 7,4 C 7,6 C 5,7 C 76 % 1007 hPa 0,7 l/m 8,7 m/s (5 Bft) W-SW67.5 245 0 min 3,87 klux 3,5 C -3,3 C
04.01.2007 14:22 7,4 C 7,5 C 5,6 C 76 % 1008 hPa 0,0 l/m 7,6 m/s (4 Bft) W-SW45 240 0 min 3,01 klux 3,5 C -2,3 C
04.01.2007 14:27 7,4 C 7,3 C 5,6 C 76 % 1008 hPa 0,0 l/m 7,8 m/s (4 Bft) W-SW45 250 0 min 3,05 klux 3,5 C -2,5 C
04.01.2007 14:32 7,1 C 7,2 C 5,6 C 81 % 1008 hPa 0,0 l/m 7,9 m/s (4 Bft) W-SW45 250 0 min 4,71 klux 4,1 C -3,1 C
04.01.2007 14:37 7,1 C 7,1 C 5,6 C 81 % 1008 hPa 0,0 l/m 5,7 m/s (4 Bft) W-SW45 255 0 min 5,58 klux 4,1 C -0,6 C
04.01.2007 14:42 6,9 C 7,1 C 5,3 C 80 % 1008 hPa 0,0 l/m 6,0 m/s (4 Bft) W-SW45 250 0 min 4,27 klux 3,7 C -1,3 C
04.01.2007 14:47 6,9 C 7,0 C 5,4 C 80 % 1008 hPa 0,0 l/m 6,8 m/s (4 Bft) W-SW45 255 0 min 6,02 klux 3,7 C -2,2 C
04.01.2007 14:52 6,9 C 7,1 C 5,4 C 80 % 1008 hPa 0,0 l/m 6,7 m/s (4 Bft) W-SW67.5 245 5 min 17,6 klux 3,7 C -2,1 C
04.01.2007 14:57 7,3 C 7,2 C 5,5 C 79 % 1008 hPa 0,0 l/m 5,7 m/s (4 Bft) W-SW45 255 0 min 12,9 klux 3,9 C -0,4 C
04.01.2007 15:02 7,2 C 7,2 C 5,5 C 79 % 1008 hPa 0,4 l/m 5,8 m/s (4 Bft) W67.5 260 0 min 3,32 klux 3,8 C -0,7 C
04.01.2007 15:07 7,1 C 7,2 C 5,5 C 80 % 1008 hPa 0,0 l/m 4,8 m/s (3 Bft) W-SW45 250 0 min 1,53 klux 3,9 C 0,7 C
04.01.2007 15:12 7,1 C 7,1 C 5,5 C 81 % 1008 hPa 0,0 l/m 5,3 m/s (3 Bft) W-SW22.5 255 0 min 1,24 klux 4,1 C -0,2 C
04.01.2007 15:17 7,0 C 7,0 C 5,5 C 82 % 1008 hPa 0,4 l/m 3,1 m/s (2 Bft) W-SW22.5 255 0 min 1,24 klux 4,1 C 3,6 C
04.01.2007 15:22 6,9 C 7,0 C 5,3 C 83 % 1008 hPa 0,0 l/m 6,9 m/s (4 Bft) W-SW22.5 255 0 min 1,02 klux 4,2 C -2,3 C
04.01.2007 15:27 6,8 C 6,9 C 5,2 C 83 % 1008 hPa 0,4 l/m 5,6 m/s (4 Bft) W-SW22.5 250 0 min 896 lux 4,1 C -0,9 C
04.01.2007 15:32 6,8 C 6,8 C 5,2 C 83 % 1008 hPa 0,0 l/m 5,5 m/s (3 Bft) W-SW22.5 250 0 min 827 lux 4,1 C -0,7 C
04.01.2007 15:37 6,6 C 6,7 C 5,2 C 83 % 1009 hPa 0,4 l/m 6,3 m/s (4 Bft) W-SW22.5 255 0 min 1,29 klux 3,9 C -2,0 C
04.01.2007 15:42 6,6 C 6,7 C 5,1 C 83 % 1009 hPa 0,0 l/m 5,2 m/s (3 Bft) W-SW45 250 0 min 2,33 klux 3,9 C -0,6 C
04.01.2007 15:47 6,5 C 6,6 C 5,0 C 84 % 1009 hPa 0,0 l/m 4,4 m/s (3 Bft) W-SW45 250 0 min 1,82 klux 4,0 C 0,4 C
04.01.2007 15:52 6,5 C 6,6 C 5,0 C 84 % 1008 hPa 0,0 l/m 4,7 m/s (3 Bft) W22.5 260 0 min 1,93 klux 4,0 C 0,0 C
04.01.2007 15:57 6,5 C 6,5 C 5,0 C 84 % 1008 hPa 0,0 l/m 5,3 m/s (3 Bft) W22.5 260 0 min 1,61 klux 4,0 C -0,9 C
04.01.2007 16:02 6,5 C 6,5 C 5,0 C 84 % 1008 hPa 0,0 l/m 3,5 m/s (3 Bft) W-SW22.5 255 0 min 1,27 klux 4,0 C 2,2 C
04.01.2007 16:07 6,6 C 6,5 C 5,1 C 84 % 1009 hPa 0,0 l/m 4,5 m/s (3 Bft) W22.5 265 0 min 543 lux 4,1 C 0,5 C
04.01.2007 16:12 6,8 C 6,5 C 5,1 C 84 % 1009 hPa 0,0 l/m 3,8 m/s (3 Bft) W45 265 0 min 508 lux 4,3 C 2,0 C
04.01.2007 16:17 6,8 C 6,5 C 5,1 C 84 % 1009 hPa 0,0 l/m 5,1 m/s (3 Bft) W-SW45 255 0 min 616 lux 4,3 C -0,2 C
04.01.2007 16:22 6,9 C 6,6 C 5,2 C 82 % 1009 hPa 0,0 l/m 4,4 m/s (3 Bft) W-SW22.5 255 0 min 466 lux 4,0 C 1,0 C
04.01.2007 16:27 7,0 C 6,6 C 5,2 C 80 % 1009 hPa 0,0 l/m 4,6 m/s (3 Bft) W-SW22.5 255 0 min 360 lux 3,8 C 0,7 C
04.01.2007 16:32 7,1 C 6,7 C 5,2 C 79 % 1009 hPa 0,0 l/m 5,7 m/s (4 Bft) W-SW45 255 0 min 213 lux 3,7 C -0,6 C
04.01.2007 16:37 7,1 C 6,7 C 5,2 C 79 % 1009 hPa 0,0 l/m 5,6 m/s (4 Bft) W-SW22.5 250 0 min 96 lux 3,7 C -0,5 C
04.01.2007 16:42 7,1 C 6,8 C 5,2 C 78 % 1009 hPa 0,0 l/m 4,6 m/s (3 Bft) W-SW22.5 250 0 min 60 lux 3,5 C 1,0 C
04.01.2007 16:47 7,1 C 6,7 C 5,1 C 77 % 1009 hPa 0,0 l/m 7,4 m/s (4 Bft) W-SW45 250 0 min 44 lux 3,3 C -2,6 C
04.01.2007 16:52 7,0 C 6,8 C 5,1 C 77 % 1009 hPa 0,0 l/m 7,4 m/s (4 Bft) W-SW45 250 0 min 22 lux 3,2 C -2,7 C
04.01.2007 16:57 7,0 C 6,8 C 5,2 C 78 % 1009 hPa 0,0 l/m 6,3 m/s (4 Bft) W-SW45 250 0 min 15 lux 3,4 C -1,5 C
04.01.2007 17:02 7,0 C 6,8 C 5,1 C 79 % 1009 hPa 0,0 l/m 8,3 m/s (5 Bft) W-SW22.5 250 0 min 11 lux 3,6 C -3,5 C
04.01.2007 17:07 6,9 C 6,7 C 5,1 C 81 % 1009 hPa 0,0 l/m 5,2 m/s (3 Bft) W-SW67.5 245 0 min 8 lux 3,9 C -0,3 C
04.01.2007 17:12 6,9 C 6,7 C 5,1 C 82 % 1009 hPa 0,4 l/m 7,0 m/s (4 Bft) W-SW45 255 0 min 4 lux 4,0 C -2,4 C
04.01.2007 17:17 6,8 C 6,7 C 5,1 C 83 % 1009 hPa 0,0 l/m 5,5 m/s (3 Bft) W-SW45 250 0 min 1 lux 4,1 C -0,8 C
04.01.2007 17:22 6,8 C 6,6 C 5,1 C 83 % 1009 hPa 0,0 l/m 6,8 m/s (4 Bft) W-SW45 255 0 min 0 lux 4,1 C -2,4 C
04.01.2007 17:27 6,8 C 6,6 C 5,1 C 83 % 1009 hPa 0,0 l/m 6,5 m/s (4 Bft) W-SW22.5 240 0 min 0 lux 4,1 C -2,0 C
04.01.2007 17:32 6,8 C 6,6 C 5,1 C 83 % 1009 hPa 0,4 l/m 7,5 m/s (4 Bft) W-SW22.5 255 0 min 0 lux 4,1 C -3,1 C
04.01.2007 17:37 6,7 C 6,6 C 5,1 C 82 % 1009 hPa 0,0 l/m 6,6 m/s (4 Bft) W-SW22.5 250 0 min 0 lux 3,8 C -2,3 C
04.01.2007 17:42 6,6 C 6,6 C 4,9 C 81 % 1009 hPa 0,0 l/m 8,7 m/s (5 Bft) W-SW22.5 250 0 min 0 lux 3,6 C -4,4 C
04.01.2007 17:47 6,5 C 6,5 C 4,9 C 81 % 1009 hPa 0,4 l/m 7,4 m/s (4 Bft) W-SW45 255 0 min 0 lux 3,5 C -3,3 C
04.01.2007 17:52 6,5 C 6,4 C 4,8 C 81 % 1009 hPa 0,0 l/m 6,7 m/s (4 Bft) W-SW45 255 0 min 0 lux 3,5 C -2,6 C
04.01.2007 17:57 6,4 C 6,4 C 4,8 C 82 % 1009 hPa 0,0 l/m 6,9 m/s (4 Bft) W-SW45 250 0 min 0 lux 3,6 C -3,0 C
04.01.2007 18:02 6,4 C 6,4 C 4,8 C 82 % 1009 hPa 0,0 l/m 4,9 m/s (3 Bft) W-SW22.5 250 0 min 0 lux 3,6 C -0,4 C
04.01.2007 18:07 6,4 C 6,3 C 4,8 C 82 % 1009 hPa 0,0 l/m 6,1 m/s (4 Bft) W-SW22.5 255 0 min 0 lux 3,6 C -2,1 C
04.01.2007 18:12 6,4 C 6,3 C 4,8 C 82 % 1009 hPa 0,0 l/m 6,1 m/s (4 Bft) W-SW22.5 255 0 min 0 lux 3,6 C -2,1 C
04.01.2007 18:17 6,5 C 6,3 C 4,8 C 82 % 1009 hPa 0,0 l/m 6,9 m/s (4 Bft) W-SW22.5 250 0 min 0 lux 3,7 C -2,9 C
04.01.2007 18:22 6,6 C 6,4 C 4,9 C 81 % 1009 hPa 0,0 l/m 5,3 m/s (3 Bft) W-SW45 250 0 min 0 lux 3,6 C -0,7 C
04.01.2007 18:27 6,7 C 6,4 C 4,9 C 81 % 1009 hPa 0,0 l/m 6,5 m/s (4 Bft) W-SW22.5 255 0 min 0 lux 3,7 C -2,2 C
04.01.2007 18:32 6,7 C 6,4 C 4,9 C 81 % 1009 hPa 0,0 l/m 6,4 m/s (4 Bft) W-SW45 255 0 min 0 lux 3,7 C -2,0 C
04.01.2007 18:37 6,7 C 6,5 C 5,0 C 80 % 1009 hPa 0,0 l/m 6,1 m/s (4 Bft) W-SW22.5 250 0 min 0 lux 3,5 C -1,6 C
04.01.2007 18:42 6,7 C 6,5 C 5,0 C 81 % 1009 hPa 0,0 l/m 4,6 m/s (3 Bft) W-SW45 245 0 min 0 lux 3,7 C 0,4 C
04.01.2007 18:47 6,8 C 6,5 C 5,0 C 81 % 1009 hPa 0,0 l/m 5,7 m/s (4 Bft) W-SW22.5 245 0 min 0 lux 3,8 C -1,0 C
04.01.2007 18:52 6,8 C 6,6 C 5,0 C 80 % 1010 hPa 0,0 l/m 5,9 m/s (4 Bft) W-SW45 250 0 min 0 lux 3,6 C -1,2 C
04.01.2007 18:57 6,9 C 6,6 C 5,0 C 79 % 1010 hPa 0,0 l/m 8,9 m/s (5 Bft) W-SW45 250 0 min 0 lux 3,5 C -4,2 C
04.01.2007 19:02 6,9 C 6,6 C 5,0 C 79 % 1010 hPa 0,0 l/m 7,5 m/s (4 Bft) W-SW22.5 255 0 min 0 lux 3,5 C -2,9 C
04.01.2007 19:07 7,0 C 6,6 C 5,0 C 77 % 1010 hPa 0,0 l/m 7,5 m/s (4 Bft) W-SW22.5 250 0 min 0 lux 3,2 C -2,8 C
04.01.2007 19:12 6,9 C 6,7 C 5,0 C 78 % 1010 hPa 0,0 l/m 4,5 m/s (3 Bft) W-SW45 250 0 min 0 lux 3,3 C 0,8 C
04.01.2007 19:17 6,9 C 6,7 C 5,0 C 78 % 1010 hPa 0,0 l/m 8,3 m/s (5 Bft) W-SW22.5 250 0 min 0 lux 3,3 C -3,7 C
04.01.2007 19:22 7,0 C 6,7 C 5,0 C 76 % 1010 hPa 0,0 l/m 6,9 m/s (4 Bft) W67.5 260 0 min 0 lux 3,1 C -2,2 C
04.01.2007 19:27 7,0 C 6,8 C 5,0 C 76 % 1010 hPa 0,0 l/m 5,9 m/s (4 Bft) W-SW45 255 0 min 0 lux 3,1 C -1,1 C
04.01.2007 19:32 7,0 C 6,8 C 5,1 C 75 % 1010 hPa 0,0 l/m 5,1 m/s (3 Bft) W-SW22.5 245 0 min 0 lux 2,9 C -0,0 C
04.01.2007 19:37 7,0 C 6,8 C 5,0 C 74 % 1010 hPa 0,0 l/m 6,7 m/s (4 Bft) W-SW45 250 0 min 0 lux 2,7 C -1,9 C
04.01.2007 19:42 7,1 C 6,9 C 5,0 C 73 % 1010 hPa 0,0 l/m 9,7 m/s (5 Bft) W-SW22.5 250 0 min 0 lux 2,6 C -4,5 C
04.01.2007 19:47 7,0 C 6,9 C 5,0 C 74 % 1010 hPa 0,0 l/m 8,1 m/s (5 Bft) W-SW22.5 245 0 min 0 lux 2,7 C -3,4 C
04.01.2007 19:52 7,0 C 6,9 C 5,1 C 74 % 1010 hPa 0,0 l/m 8,1 m/s (5 Bft) W-SW45 245 0 min 0 lux 2,7 C -3,4 C
04.01.2007 19:57 7,0 C 6,9 C 5,0 C 74 % 1010 hPa 0,0 l/m 7,5 m/s (4 Bft) W-SW22.5 255 0 min 0 lux 2,7 C -2,8 C
04.01.2007 20:02 7,0 C 6,9 C 5,0 C 74 % 1010 hPa 0,0 l/m 6,1 m/s (4 Bft) W-SW22.5 250 0 min 0 lux 2,7 C -1,2 C
04.01.2007 20:07 7,0 C 6,9 C 5,1 C 74 % 1010 hPa 0,0 l/m 7,7 m/s (4 Bft) W-SW22.5 250 0 min 0 lux 2,7 C -3,0 C
04.01.2007 20:12 7,0 C 7,0 C 5,1 C 74 % 1010 hPa 0,0 l/m 8,4 m/s (5 Bft) W-SW45 250 0 min 0 lux 2,7 C -3,6 C
04.01.2007 20:17 7,0 C 6,9 C 5,1 C 74 % 1010 hPa 0,0 l/m 8,8 m/s (5 Bft) W-SW45 250 0 min 0 lux 2,7 C -4,0 C
04.01.2007 20:22 7,0 C 6,9 C 5,1 C 74 % 1010 hPa 0,0 l/m 9,8 m/s (5 Bft) W-SW22.5 240 0 min 0 lux 2,7 C -4,7 C
04.01.2007 20:27 7,0 C 6,8 C 5,1 C 74 % 1010 hPa 0,0 l/m 8,7 m/s (5 Bft) W45 260 0 min 0 lux 2,7 C -3,9 C
04.01.2007 20:31 7,0 C 6,8 C 5,0 C 74 % 1010 hPa 0,0 l/m 8,5 m/s (5 Bft) W-SW45 250 0 min 0 lux 2,7 C -3,7 C
04.01.2007 20:36 7,0 C 6,8 C 5,0 C 73 % 1010 hPa 0,0 l/m 7,6 m/s (4 Bft) W22.5 260 0 min 0 lux 2,5 C -2,9 C
04.01.2007 20:41 7,0 C 6,8 C 5,0 C 73 % 1010 hPa 0,0 l/m 7,4 m/s (4 Bft) W-SW45 255 0 min 0 lux 2,5 C -2,7 C
04.01.2007 20:46 7,0 C 6,8 C 5,1 C 73 % 1010 hPa 0,0 l/m 6,5 m/s (4 Bft) W-SW22.5 250 0 min 0 lux 2,5 C -1,7 C
04.01.2007 20:51 7,0 C 6,8 C 5,1 C 74 % 1010 hPa 0,0 l/m 10,6 m/s (5 Bft) W22.5 260 0 min 0 lux 2,7 C -5,2 C
04.01.2007 20:52 7,0 C 6,8 C 5,1 C 74 % 1010 hPa 0,0 l/m 10,6 m/s (5 Bft) W22.5 260 0 min 0 lux 2,7 C -5,2 C
04.01.2007 20:57 6,8 C 6,9 C 5,1 C 77 % 1011 hPa 0,0 l/m 9,1 m/s (5 Bft) W-SW22.5 240 0 min 0 lux 3,1 C -4,4 C
04.01.2007 21:02 6,8 C 6,8 C 5,1 C 78 % 1011 hPa 0,0 l/m 5,5 m/s (3 Bft) W-SW45 250 0 min 0 lux 3,2 C -0,8 C
04.01.2007 21:07 6,7 C 6,8 C 5,0 C 80 % 1011 hPa 0,4 l/m 5,7 m/s (4 Bft) W-SW45 245 0 min 0 lux 3,5 C -1,2 C
04.01.2007 21:12 6,6 C 6,7 C 5,0 C 82 % 1011 hPa 0,7 l/m 5,0 m/s (3 Bft) W-SW45 255 0 min 0 lux 3,8 C -0,4 C
04.01.2007 21:17 6,5 C 6,7 C 5,0 C 83 % 1011 hPa 0,4 l/m 5,1 m/s (3 Bft) W-SW22.5 255 0 min 0 lux 3,8 C -0,7 C
04.01.2007 21:22 6,5 C 6,6 C 5,0 C 84 % 1011 hPa 0,4 l/m 6,2 m/s (4 Bft) W-SW22.5 250 0 min 0 lux 4,0 C -2,1 C
04.01.2007 21:27 6,4 C 6,5 C 4,9 C 84 % 1011 hPa 0,4 l/m 5,0 m/s (3 Bft) W22.5 260 0 min 0 lux 3,9 C -0,5 C
04.01.2007 21:32 6,4 C 6,5 C 4,8 C 84 % 1011 hPa 0,4 l/m 11,9 m/s (6 Bft) W45 260 0 min 0 lux 3,9 C -6,9 C
04.01.2007 21:37 6,4 C 6,4 C 4,8 C 84 % 1011 hPa 0,0 l/m 9,3 m/s (5 Bft) W45 260 0 min 0 lux 3,9 C -5,2 C
04.01.2007 21:42 6,4 C 6,3 C 4,7 C 83 % 1011 hPa 0,0 l/m 8,3 m/s (5 Bft) W-SW22.5 245 0 min 0 lux 3,7 C -4,4 C
04.01.2007 21:47 6,2 C 6,2 C 4,7 C 84 % 1011 hPa 0,0 l/m 5,0 m/s (3 Bft) W-SW45 250 0 min 0 lux 3,7 C -0,8 C
04.01.2007 21:52 6,2 C 6,2 C 4,7 C 84 % 1011 hPa 0,0 l/m 6,4 m/s (4 Bft) W-SW45 250 0 min 0 lux 3,7 C -2,7 C
04.01.2007 21:57 6,2 C 6,2 C 4,8 C 84 % 1011 hPa 0,0 l/m 7,4 m/s (4 Bft) W-SW45 255 0 min 0 lux 3,7 C -3,8 C
04.01.2007 22:02 6,4 C 6,2 C 4,8 C 85 % 1011 hPa 0,0 l/m 5,6 m/s (4 Bft) W-SW22.5 250 0 min 0 lux 4,1 C -1,4 C
04.01.2007 22:07 6,4 C 6,2 C 4,8 C 85 % 1011 hPa 0,0 l/m 5,8 m/s (4 Bft) W-SW67.5 250 0 min 0 lux 4,1 C -1,7 C
04.01.2007 22:12 6,4 C 6,2 C 4,8 C 85 % 1011 hPa 0,4 l/m 5,8 m/s (4 Bft) W45 270 0 min 0 lux 4,1 C -1,7 C
04.01.2007 22:17 5,7 C 6,1 C 4,5 C 84 % 1011 hPa 1,1 l/m 8,1 m/s (5 Bft) W67.5 280 0 min 0 lux 3,2 C -5,2 C
04.01.2007 22:22 5,7 C 6,1 C 4,4 C 84 % 1011 hPa 0,0 l/m 8,2 m/s (5 Bft) W45 265 0 min 0 lux 3,2 C -5,3 C
04.01.2007 22:27 5,7 C 5,9 C 4,4 C 84 % 1011 hPa 0,4 l/m 9,1 m/s (5 Bft) W-SW67.5 255 0 min 0 lux 3,2 C -6,1 C
04.01.2007 22:32 5,6 C 5,8 C 4,3 C 85 % 1012 hPa 1,1 l/m 8,9 m/s (5 Bft) W45 260 0 min 0 lux 3,3 C -6,0 C
04.01.2007 22:37 5,6 C 5,7 C 4,3 C 85 % 1012 hPa 0,0 l/m 8,6 m/s (5 Bft) W45 260 0 min 0 lux 3,3 C -5,7 C
04.01.2007 22:42 5,7 C 5,6 C 4,3 C 85 % 1012 hPa 0,0 l/m 7,1 m/s (4 Bft) W-SW22.5 255 0 min 0 lux 3,4 C -4,1 C
04.01.2007 22:47 5,7 C 5,7 C 4,4 C 86 % 1012 hPa 0,0 l/m 4,8 m/s (3 Bft) W-SW22.5 250 0 min 0 lux 3,5 C -1,2 C
04.01.2007 22:52 6,1 C 5,6 C 4,6 C 86 % 1011 hPa 0,0 l/m 7,9 m/s (4 Bft) W-SW45 255 0 min 0 lux 3,9 C -4,4 C
04.01.2007 22:57 6,2 C 5,7 C 4,6 C 86 % 1011 hPa 0,0 l/m 7,9 m/s (4 Bft) W-SW22.5 255 0 min 0 lux 4,0 C -4,3 C
04.01.2007 23:02 6,3 C 5,7 C 4,7 C 86 % 1011 hPa 0,4 l/m 7,0 m/s (4 Bft) W-SW67.5 245 0 min 0 lux 4,1 C -3,3 C
04.01.2007 23:07 6,3 C 5,8 C 4,8 C 86 % 1012 hPa 0,0 l/m 5,2 m/s (3 Bft) W22.5 260 0 min 0 lux 4,1 C -1,0 C
04.01.2007 23:12 6,5 C 5,9 C 4,8 C 85 % 1012 hPa 0,0 l/m 9,1 m/s (5 Bft) W45 265 0 min 0 lux 4,2 C -4,9 C
04.01.2007 23:17 6,5 C 6,0 C 4,8 C 85 % 1012 hPa 0,0 l/m 6,8 m/s (4 Bft) W-SW45 250 0 min 0 lux 4,2 C -2,8 C
04.01.2007 23:22 6,5 C 6,0 C 4,9 C 85 % 1012 hPa 0,0 l/m 6,3 m/s (4 Bft) W22.5 260 0 min 0 lux 4,2 C -2,1 C
04.01.2007 23:27 6,5 C 6,1 C 4,9 C 84 % 1012 hPa 0,0 l/m 5,5 m/s (3 Bft) W45 265 0 min 0 lux 4,0 C -1,1 C
04.01.2007 23:32 6,6 C 6,1 C 4,9 C 84 % 1012 hPa 0,0 l/m 5,1 m/s (3 Bft) W-SW45 255 0 min 0 lux 4,1 C -0,5 C
04.01.2007 23:37 6,6 C 6,2 C 4,9 C 83 % 1012 hPa 0,0 l/m 9,6 m/s (5 Bft) W-SW22.5 250 0 min 0 lux 3,9 C -5,2 C
04.01.2007 23:42 6,6 C 6,2 C 4,9 C 83 % 1012 hPa 0,0 l/m 7,2 m/s (4 Bft) W-SW45 250 0 min 0 lux 3,9 C -3,1 C
04.01.2007 23:47 6,6 C 6,2 C 4,9 C 83 % 1012 hPa 0,0 l/m 5,6 m/s (4 Bft) W-SW22.5 250 0 min 0 lux 3,9 C -1,1 C
04.01.2007 23:52 6,5 C 6,3 C 4,9 C 83 % 1012 hPa 0,0 l/m 5,6 m/s (4 Bft) W-SW22.5 250 0 min 0 lux 3,8 C -1,3 C
04.01.2007 23:57 6,4 C 6,3 C 4,8 C 84 % 1012 hPa 0,0 l/m 4,9 m/s (3 Bft) W-SW22.5 250 0 min 0 lux 3,9 C -0,4 C
_ Min-Zeit 22:32 06:22 22:32 02:02 13:02 - 01:37 - - - - 02:02 21:32
Minimum _ 5,6 C 5,5 C 4,3 C 70 % 1007 hPa - 1,9 m/s (2 Bft) - - - - 1,3 C -6,9 C
_ Max-Zeit 13:32 13:47 13:32 06:12 00:02 22:17 21:32 - - 13:32 13:32 16:12 01:37
Maximum _ 7,9 C 7,8 C 6,1 C 86 % 1018 hPa 1,1 l/m 11,9 m/s
W (6 Bft)
- - 5 min 23,0 klux 4,3 C 5,7 C
Durchschnitt _ 6,5 C 6,4 C 4,9 C 79 % 1011 hPa #10,4 l/m 6,5 m/s (4 Bft) W-SW - #10 min. 1,51 klux 3,1 C -2,2 C